Change the Weather History Date:

Thursday, April 24, 2014

  Actual Average (KMKC) Record (KMKC)
Temperature  
Mean Temperature 58 °F -  
Max Temperature 66 °F 66 °F 88 °F (2012)
Min Temperature 51 °F 47 °F 30 °F (2013)
Degree Days  
Heating Degree Days 6    
Growing Degree Days 8 (Base 50)    
Moisture  
Dew Point 50 °F    
Average Humidity 76    
Maximum Humidity 100    
Minimum Humidity 43    
Precipitation  
Precipitation 0.00 in - - ()
Sea Level Pressure  
Sea Level Pressure 29.70 in    
Wind  
Wind Speed 9 mph (WSW)    
Max Wind Speed 26 mph    
Max Gust Speed 37 mph    
Visibility 9 miles    
Events Rain , Thunderstorm    
Averages and records for this station are not official NWS values.
T = Trace of Precipitation, MM = Missing Value Source: NWS Daily Summary

Daily Weather History Graph

Daily Weather History Graph

Search for Another Location

Airport or City:

Trip Planner

Search our weather history database for the weather conditions in past years. The results will help you decide how hot, cold, wet, or windy it might be!

Date:

Astronomy

Apr. 24, 2014 Rise Set
Actual Time 6:27 AM CDT 8:03 PM CDT
Civil Twilight 5:59 AM CDT 8:32 PM CDT
Nautical Twilight 5:24 AM CDT 9:06 PM CDT
Astronomical Twilight 4:48 AM CDT 9:43 PM CDT
Moon 3:37 AM CDT (4/24) 3:21 PM CDT (4/24)
Length of Visible Light 14h 33m
Length of Day
13h 36m
Waning Crescent, 24% of the Moon is Illuminated
Apr 24
Waning Crescent
Apr 29
New
May 6
First Quarter
May 14
Full
May 21
Last Quarter

Hourly Weather History & Observations

Time (CDT) Temp. Dew Point Humidity Pressure Visibility Wind Dir Wind Speed Gust Speed Precip Events Conditions
12:15 AM 62.6 °F 41.0 °F 45% 29.72 in 10.0 mi ESE 9.2 mph - N/A   Clear
12:35 AM 62.6 °F 41.0 °F 45% 29.72 in 10.0 mi SE 6.9 mph - N/A   Clear
12:55 AM 62.6 °F 41.0 °F 45% 29.70 in 10.0 mi ESE 9.2 mph - N/A   Clear
1:15 AM 62.6 °F 41.0 °F 45% 29.70 in 10.0 mi SE 9.2 mph - N/A   Clear
1:35 AM 66.2 °F 42.8 °F 43% 29.69 in 10.0 mi SSE 13.8 mph 23.0 mph N/A   Unknown
1:55 AM 66.2 °F 42.8 °F 43% 29.68 in 10.0 mi SE 12.7 mph 19.6 mph N/A   Clear
2:15 AM 66.2 °F 42.8 °F 43% 29.66 in 10.0 mi SE 12.7 mph 19.6 mph N/A   Clear
2:35 AM 66.2 °F 42.8 °F 43% 29.64 in 10.0 mi SE 15.0 mph 23.0 mph N/A   Clear
2:55 AM 66.2 °F 44.6 °F 46% 29.63 in 10.0 mi SE 15.0 mph 24.2 mph N/A   Clear
3:35 AM 66.2 °F 44.6 °F 46% 29.63 in 10.0 mi SSE 12.7 mph 20.7 mph N/A   Clear
3:55 AM 66.2 °F 46.4 °F 49% 29.59 in 10.0 mi SE 15.0 mph 26.5 mph N/A Rain Light Rain
4:15 AM 66.2 °F 46.4 °F 49% 29.62 in 10.0 mi SSE 12.7 mph 16.1 mph N/A   Scattered Clouds
4:35 AM 66.2 °F 46.4 °F 49% 29.66 in 10.0 mi South 8.1 mph 19.6 mph N/A   Clear
4:55 AM 66.2 °F 46.4 °F 49% 29.70 in 10.0 mi WSW 6.9 mph - N/A   Unknown
5:15 AM 66.2 °F 46.4 °F 49% 29.69 in 10.0 mi South 3.5 mph - N/A   Scattered Clouds
5:35 AM 64.4 °F 48.2 °F 56% 29.68 in 10.0 mi Calm Calm - N/A Rain Light Rain
5:55 AM 60.8 °F 50.0 °F 68% 29.67 in 10.0 mi Calm Calm - N/A   Overcast
6:15 AM 62.6 °F 50.0 °F 63% 29.66 in 10.0 mi SE 5.8 mph - N/A Rain Light Rain
6:35 AM 62.6 °F 51.8 °F 68% 29.67 in 10.0 mi ESE 5.8 mph - N/A Rain Light Rain
6:55 AM 60.8 °F 51.8 °F 72% 29.66 in 10.0 mi ESE 5.8 mph - N/A   Overcast
7:15 AM 60.8 °F 51.8 °F 72% 29.67 in 10.0 mi ESE 5.8 mph - N/A   Overcast
7:35 AM 62.6 °F 50.0 °F 63% 29.67 in 10.0 mi SSE 6.9 mph - N/A Rain Light Rain
7:55 AM 60.8 °F 51.8 °F 72% 29.68 in 10.0 mi SE 6.9 mph - N/A Rain Light Rain
8:15 AM 60.8 °F 51.8 °F 72% 29.69 in 10.0 mi SE 8.1 mph - N/A Rain , Thunderstorm Rain
8:35 AM 59.0 °F 51.8 °F 77% 29.68 in 10.0 mi SSE 10.4 mph - N/A Rain Light Rain
8:55 AM 57.2 °F 51.8 °F 82% 29.67 in 7.0 mi SE 4.6 mph - N/A Rain Rain
9:15 AM 57.2 °F 53.6 °F 88% 29.67 in 7.0 mi ESE 8.1 mph - N/A Rain , Thunderstorm Rain
9:35 AM 55.4 °F 55.4 °F 100% 29.70 in 7.0 mi NW 3.5 mph - N/A Rain Rain
9:55 AM 55.4 °F 53.6 °F 94% 29.67 in 10.0 mi East 5.8 mph - N/A Rain , Thunderstorm Light Thunderstorms and Rain
10:15 AM 55.4 °F 55.4 °F 100% 29.67 in 7.0 mi ESE 3.5 mph - N/A Rain Light Rain
10:35 AM 55.4 °F 55.4 °F 100% 29.64 in 10.0 mi East 11.5 mph - N/A Thunderstorm Unknown
10:55 AM 55.4 °F 55.4 °F 100% 29.64 in 10.0 mi ESE 8.1 mph - N/A   Light Drizzle
11:15 AM 55.4 °F 55.4 °F 100% 29.64 in 10.0 mi ESE 6.9 mph - N/A Rain , Thunderstorm Light Thunderstorms and Rain
11:35 AM 55.4 °F 55.4 °F 100% 29.61 in 1.8 mi East 11.5 mph - N/A Rain , Thunderstorm Heavy Thunderstorms and Rain
12:15 PM 59.0 °F 59.0 °F 100% 29.62 in 10.0 mi SSE 3.5 mph - N/A Rain Light Rain
12:35 PM 59.0 °F 59.0 °F 100% 29.60 in 7.0 mi ESE 3.5 mph - N/A Rain Light Rain
12:55 PM 59.0 °F 59.0 °F 100% 29.60 in 10.0 mi SE 5.8 mph - N/A Rain , Thunderstorm Light Thunderstorms and Rain
1:15 PM 59.0 °F 59.0 °F 100% 29.60 in 1.5 mi West 6.9 mph - N/A Rain , Thunderstorm Heavy Thunderstorms and Rain
1:35 PM 59.0 °F 59.0 °F 100% 29.63 in 1.2 mi WSW 9.2 mph - N/A Rain , Thunderstorm Heavy Thunderstorms and Rain
1:55 PM 59.0 °F 57.2 °F 94% 29.62 in 5.0 mi WNW 26.5 mph 35.7 mph N/A Rain , Thunderstorm Light Thunderstorms and Rain
2:15 PM 55.4 °F 53.6 °F 94% 29.60 in 10.0 mi NNW 18.4 mph 36.8 mph N/A Rain , Thunderstorm Rain
2:35 PM 55.4 °F 53.6 °F 94% 29.60 in 10.0 mi NNW 20.7 mph 27.6 mph N/A Rain , Thunderstorm Light Thunderstorms and Rain
2:55 PM 55.4 °F 53.6 °F 94% 29.62 in 10.0 mi NNW 10.4 mph 24.2 mph N/A Rain Light Rain
3:15 PM 55.4 °F 53.6 °F 94% 29.64 in 10.0 mi NW 8.1 mph - N/A Rain Light Rain
3:35 PM 55.4 °F 51.8 °F 88% 29.67 in 10.0 mi NNW 9.2 mph - N/A   Overcast
3:55 PM 55.4 °F 53.6 °F 94% 29.69 in 10.0 mi WNW 8.1 mph - N/A   Overcast
4:15 PM 55.4 °F 51.8 °F 88% 29.70 in 10.0 mi NW 12.7 mph - N/A   Overcast
4:35 PM 55.4 °F 51.8 °F 88% 29.69 in 10.0 mi NNW 17.3 mph 24.2 mph N/A   Overcast
4:55 PM 55.4 °F 51.8 °F 88% 29.69 in 10.0 mi NNW 10.4 mph 24.2 mph N/A   Overcast
5:15 PM 55.4 °F 51.8 °F 88% 29.69 in 10.0 mi NNW 12.7 mph - N/A   Overcast
5:35 PM 55.4 °F 50.0 °F 82% 29.72 in 10.0 mi NW 13.8 mph 19.6 mph N/A   Overcast
5:55 PM 55.4 °F 50.0 °F 82% 29.72 in 10.0 mi NNW 15.0 mph 20.7 mph N/A   Overcast
6:15 PM 55.4 °F 48.2 °F 77% 29.75 in 10.0 mi NW 15.0 mph 23.0 mph N/A   Mostly Cloudy
6:35 PM 55.4 °F 48.2 °F 77% 29.76 in 10.0 mi NW 12.7 mph 18.4 mph N/A   Scattered Clouds
6:55 PM 55.4 °F 48.2 °F 77% 29.76 in 10.0 mi NW 11.5 mph 16.1 mph N/A   Mostly Cloudy
7:15 PM 55.4 °F 50.0 °F 82% 29.77 in 10.0 mi NW 8.1 mph 18.4 mph N/A   Mostly Cloudy
7:35 PM 55.4 °F 50.0 °F 82% 29.78 in 10.0 mi NW 9.2 mph - N/A   Scattered Clouds
7:55 PM 55.4 °F 50.0 °F 82% 29.78 in 10.0 mi NW 8.1 mph - N/A   Clear
8:15 PM 55.4 °F 48.2 °F 77% 29.79 in 10.0 mi NW 8.1 mph - N/A   Clear
8:35 PM 55.4 °F 48.2 °F 77% 29.80 in 10.0 mi WNW 6.9 mph - N/A   Clear
8:55 PM 55.4 °F 48.2 °F 77% 29.80 in 10.0 mi NW 5.8 mph - N/A   Clear
9:15 PM 53.6 °F 48.2 °F 82% 29.80 in 10.0 mi NW 6.9 mph - N/A   Clear
9:35 PM 53.6 °F 50.0 °F 88% 29.81 in 10.0 mi NW 6.9 mph - N/A   Clear
9:55 PM 53.6 °F 48.2 °F 82% 29.82 in 10.0 mi WNW 4.6 mph - N/A   Clear
10:15 PM 53.6 °F 48.2 °F 82% 29.82 in 10.0 mi NW 5.8 mph - N/A   Clear
10:35 PM 53.6 °F 46.4 °F 77% 29.82 in 10.0 mi WNW 4.6 mph - N/A   Clear
10:55 PM 51.8 °F 46.4 °F 82% 29.83 in 10.0 mi WNW 5.8 mph - N/A   Clear
11:15 PM 51.8 °F 46.4 °F 82% 29.84 in 10.0 mi WNW 3.5 mph - N/A   Clear
11:35 PM 51.8 °F 46.4 °F 82% 29.84 in 10.0 mi WNW 3.5 mph - N/A   Clear
11:55 PM 51.8 °F 46.4 °F 82% 29.84 in 10.0 mi Calm Calm - N/A   Clear